Showing default

GGSE 3, 1292

Orbit data source: Space-Track

GGSE 3, 1292 is an American payload satellite in LEO that was launched on Tue, 09 Mar 1965 UTC via a THOR SLV-2 AGENA D launch vehicle from the Air Force Western Test Range (AFWTR). Payload-class satellites include a variety of spacecraft equipped with specific instruments for various scientific and technological missions. These include communications satellites like Starlink; space stations such as the ISS; scientific satellites like the Hubble; Earth observation satellites from companies like Planet Labs, Umbra, and HawkEye 360; GPS; miniature CubeSats for education and research; and military/defense satellites.

Loading next visibility...
Identifier
1292, 1965-016C
Orbit
LEO
Country
Flag of USUS
Related business
Manufacturer
NRL
Mission
Spacecraft
Bus & Motor
NRL 24", Unknown motor
Mass
59 kg wet, 59 kg dry
Launch date (UTC)
1965-03-09 (61 years ago)
Launch vehicle
THOR SLV-2 AGENA D
Launch site
Air Force Western Test Range (AFWTR)
Object type
Payload
Rocket body
Debris
Shape & HBR
SPHERE + 3 ANT, 15.5 m
Radar Cross Section
Medium (>0.1 m² and <1 m²)

Expand to show TLE details & history
Last TLE update: 1 day ago

TLE from 1 day ago
0 GGSE 3
1 01292U 65016C   26208.18965724  .00000085  00000-0  90821-4 0  9999
2 01292  70.0747 225.6585 0022109 258.0929 101.7701 14.01597925130175
Epoch: 2026-07-27T04:33Z
TLE epoch observation values (Epoch: 2026-07-27T04:33:06.385Z)
Latitude
-0.00004°
Longitude
-147.49492°
Altitude
893.902 km
Speed
7.404 km/s
True Right ascension
15h 02m 38s
True Declination
0° 00' 00"
Sunlit
Object was in daylight at epoch
Visualization orbit readout
Latitude
Unknown
Longitude
Unknown
Altitude
Unknown
Speed
Unknown
Apparent Right ascension
Unknown
Apparent Declination
Unknown
Sunlit
N/A
Visualization observer readout
Local Sidereal Time
22:42:10
Azimuth
Unknown
Elevation
Unknown
Doppler factor
Unknown
Orbital elements
Apogee altitude
902.358 km
Perigee altitude
870.236 km
Semi-major axis
7,264.434 km
Eccentricity
0.00221
Inclination
70.0747°
RAAN
225.6585°
Arg. of periapsis
258.0929°
True anomaly
102.01798°
Mean anomaly
101.7701°
Eccentric anomaly
101.89406°
Mean motion
3.50542 °/min
Orbital period
102.7 mins
BSTAR
0.000090821
Loading maneuver chart data...
Computing Atmospheric mass density...
Loading historical data...
Loading historical data...
Loading historical data...
Loading historical data...
Loading historical data...
Loading historical data...
Loading historical data...

Documentation

Showing up to 5 results
|